Flag for Montenegro Weather past 2 weeks in Podgorica, Montenegro

Now
73 °F

Clear.


Feels Like: 77 °F
Forecast: 64 / 85 °F
Wind: 3 mph from North

Location: Podgorica Titograd

Current Time: Sep 5, 2015 at 4:16:03 AM

Latest Report: Sep 5, 2015 at 4:00 AM


Visibility: 10 mi

Pressure: 29.92 "Hg

Humidity: 57%

Dew point: 57 °F

Location of PodgoricaLocation

Historic Weather in Podgorica — Graph

°F

Podgorica temperature yesterday

Maximum temperature yesterday: 93 °F (at 2:00 PM)
Minimum temperature yesterday: 68 °F (at 6:00 AM)
Average temperature yesterday: 82 °F

Past Weeks' High & Low Weather Summary

 TemperatureHumidityPressure
High100 °F (Aug 29, 3:00 PM)83% (Aug 28, 7:00 AM)30.12 "Hg (Aug 28, 7:00 AM)
Low66 °F (Aug 23, 6:00 AM)17% (Aug 29, 5:00 PM)29.80 "Hg (Sep 2, 3:00 PM)
Average82 °F47%29.97 "Hg
* Reported Aug 21 3:00 AM — Sep 5 3:00 AM, Podgorica, Weather by CustomWeather, © 2015

Note: Actual official high and low records may vary slightly from our data, if they occured in-between our weather recording intervals... More about our weather records

Advertising

Podgorica weather history for previous 24 hours

 ConditionsComfort  
Time TempWeatherWind HumidityBarometerVisibility
3:00 AM
Sat, Sep 5
75 °FClear.5 mph54%29.92 "Hg10 mi
2:30 AM75 °FClear.5 mph54%29.92 "Hg10 mi
2:00 AM75 °FClear.2 mph54%29.92 "Hg10 mi
1:30 AM75 °FPassing clouds.5 mph54%29.92 "HgN/A
1:00 AM75 °FClear.3 mph54%29.92 "Hg10 mi
12:30 AM75 °FClear.5 mph54%29.92 "Hg10 mi
12:00 AM77 °FPassing clouds.5 mph51%29.92 "HgN/A
11:30 PM
Fri, Sep 4
77 °FPassing clouds.3 mph51%29.92 "HgN/A
11:00 PM77 °FPassing clouds.3 mph51%29.92 "HgN/A
10:30 PM81 °FPassing clouds.2 mph42%29.95 "HgN/A
10:00 PM82 °FPassing clouds.5 mph37%29.95 "HgN/A
9:30 PM81 °FPassing clouds.2 mph39%29.95 "HgN/A
9:00 PM81 °FPassing clouds.3 mph45%29.92 "HgN/A
8:30 PM81 °FPassing clouds.6 mph45%29.92 "HgN/A
8:00 PM82 °FPassing clouds.5 mph42%29.92 "HgN/A
7:30 PM86 °FPassing clouds.6 mph33%29.89 "HgN/A
7:00 PM86 °FPassing clouds.7 mph35%29.89 "HgN/A
6:30 PM90 °FPassing clouds.8 mph29%29.89 "HgN/A
6:00 PM91 °FPassing clouds.8 mph26%29.89 "HgN/A
5:30 PM91 °FPassing clouds.7 mph28%29.89 "HgN/A
5:00 PM91 °FPassing clouds.7 mph30%29.89 "HgN/A
4:30 PM93 °FPassing clouds.7 mph28%29.89 "HgN/A
4:00 PM93 °FPassing clouds.9 mph28%29.89 "HgN/A
3:30 PM93 °FPassing clouds.10 mph28%29.89 "HgN/A
3:00 PM93 °FPassing clouds.9 mph28%29.92 "HgN/A
2:30 PM93 °FPassing clouds.6 mph28%29.92 "HgN/A
2:00 PM93 °FPassing clouds.5 mph28%29.92 "HgN/A
1:30 PM91 °FPassing clouds.7 mph28%29.92 "HgN/A
1:00 PM91 °FPassing clouds.7 mph30%29.92 "HgN/A
12:30 PM90 °FPassing clouds.6 mph31%29.95 "HgN/A
12:00 PM90 °FSunny.3 mph36%29.95 "Hg10 mi
11:30 AM90 °FSunny.5 mph31%29.95 "Hg10 mi
11:00 AM88 °FSunny.1 mph35%29.95 "Hg10 mi
10:30 AM86 °FSunny.2 mph38%29.95 "Hg10 mi
10:00 AM84 °FSunny.2 mph40%29.95 "Hg10 mi
9:30 AM82 °FPassing clouds.3 mph42%29.95 "HgN/A
9:00 AM81 °FSunny.5 mph45%29.95 "Hg10 mi
8:30 AM79 °FPassing clouds.8 mph48%29.95 "HgN/A
8:00 AM77 °FPassing clouds.7 mph54%29.95 "HgN/A
7:30 AM75 °FSunny.7 mph57%29.95 "Hg10 mi
7:00 AM72 °FClear.3 mph65%29.92 "Hg10 mi
6:30 AM70 °FClear.5 mph69%29.92 "Hg10 mi
6:00 AM68 °FClear.5 mph73%29.92 "Hg10 mi
5:30 AM72 °FPassing clouds.5 mph65%29.92 "HgN/A
5:00 AM70 °FClear.1 mph73%29.92 "Hg10 mi
4:30 AM72 °FClear.1 mph69%29.92 "Hg10 mi
4:00 AM72 °FPassing clouds.3 mph69%29.92 "HgN/A
Weather by CustomWeather, © 2015

See weather overviewHow to use our weather pages